Preview of NWS' New Version of Forecast
This preview is not operational and should not be used for support decisions.

Regional Weather Roundup (RWR)

Issued by National Weather Service (NWS)

                            
000
ASUS43 KTOP 230159
RWRKS 

WEATHER ROUNDUP FOR KANSAS
NATIONAL WEATHER SERVICE GOODLAND KS
900 PM CDT SUN SEP 22 2019

NOTE:  "FAIR" INDICATES FEW OR NO CLOUDS BELOW 12,000 FEET WITH NO
SIGNIFICANT WEATHER AND/OR OBSTRUCTIONS TO VISIBILITY.

KSZ001>006-013>018-027>032-041>047-230300-
NORTHWEST KANSAS
  
CITY           SKY/WX    TMP DP  RH WIND       PRES   REMARKS
GOODLAND       CLEAR     60  48  64 S8        30.07R                  
HAYS           CLEAR     64  56  75 S3        30.05R                  
HILL CITY      CLEAR     64  54  69 S5        30.04R                  
RUSSELL        CLEAR     66  57  72 CALM      30.03R                  
$$

KSZ061>065-074>080-084>089-230300-
SOUTHWEST KANSAS
  
CITY           SKY/WX    TMP DP  RH WIND       PRES   REMARKS
DODGE CITY     CLEAR     62  47  57 E7        30.07R                  
GARDEN CITY    CLEAR     65  46  50 E9        30.06R                  
GREAT BEND     CLEAR     64  53  67 CALM      30.05R                  
LIBERAL        CLEAR     67  48  50 E7        30.08R HAZE             
$$

KSZ066>073-081>083-090>101-230300-
SOUTHEAST KANSAS
  
CITY           SKY/WX    TMP DP  RH WIND       PRES   REMARKS
CHANUTE        CLOUDY    72  65  78 N8        30.00R                  
COFFEYVILLE    CLOUDY    76  69  79 N9        29.96R                  
HUTCHINSON     CLEAR     63  54  72 N5        30.03R                  
MEDICINE LODGE   N/A     65  54  67 N3        30.02R                  
NEWTON         CLEAR     63  58  83 N7        30.03R                  
PARSONS        MOCLDY    72  69  90 N5        29.99R                  
WICHITA INTL   PTCLDY    72  58  61 NE7       30.01R                  
WICHITA JABRA  CLEAR     66  60  81 N5        30.01R                  
WICHITA MCCONL CLEAR     68  57  68 N5        30.02R HAZE             
WINFIELD       CLEAR     72  64  76 N7        30.01R                  
$$

KSZ007>012-019>026-033>040-048>060-102>105-230300-
NORTHEAST KANSAS
  
CITY           SKY/WX    TMP DP  RH WIND       PRES   REMARKS
CONCORDIA      CLEAR     67  54  63 W5        30.01R                  
EMPORIA        CLEAR     65  62  90 N5        30.01R                  
LAWRENCE       CLEAR     62  60  93 CALM      29.99R                  
MANHATTAN      CLEAR     61  58  90 CALM      30.00R                  
OLATHE IND     CLOUDY    67  63  87 NW6       30.01R                  
OLATHE EXE     CLOUDY    67  63  87 N6        30.00R                  
SALINA         CLEAR     60  54  80 CALM      30.02R                  
TOPEKA BILLARD CLEAR     63  61  93 CALM      29.99R                  
TOPEKA FORBES  CLEAR     61  58  90 CALM      30.00R                  
$$